Wind_Speed
5 2 1 0 2 4 4 2 1 2 1 3 5 3 6 7 8 6 4 4 5 3 4 4 5 3 4 2 4 9 7 3 1 1 1 5 21 28 28 29 28 29 27 22 22 21 20 20 19 20 19 20 21 21 21 20 19 18 18 19 20 21 21 21 20 19 19 18 18 17 16 16 17 17 17 16 15 17 17 18 19 20 20 20 20 19 18 18 17 16 15 15 14 18 21 21 20
5 3 3 3 5 2 2 2 1 2 2 5 5 4 8 5 3 1 6 8 5 2 5 5 5 5 3 1 3 10 10 7 6 4 4 18 27 26 29 28 28 28 25 23 22 22 21 20 19 20 20 20 20 21 21 20 19 18 19 19 20 21 21 21 20 19 19 18 18 17 16 17 18 17 16 15 15 17 17 17 19 19 19 19 19 19 18 17 15 14 14 14 14 17 20 21 21
5 4 5 6 6 4 2 0 1 2 2 5 5 5 8 3 2 6 6 6 5 3 6 6 5 4 3 4 6 8 7 6 10 6 5 19 19 20 31 28 28 28 24 23 21 22 21 20 20 19 20 20 20 21 21 21 20 18 19 19 20 21 20 20 20 19 18 18 17 17 16 17 17 16 16 15 15 17 17 17 18 18 18 18 18 18 17 16 15 14 13 13 13 16 19 20 20
6 5 6 4 2 2 1 1 3 2 3 5 4 6 2 3 4 7 4 4 5 4 3 4 4 1 4 8 7 7 7 6 9 7 5 16 18 23 31 30 29 27 24 20 19 21 20 20 20 20 20 20 20 20 21 21 20 20 20 19 20 20 20 20 20 19 18 18 17 17 16 16 15 15 15 15 15 17 16 16 17 17 16 16 16 16 16 15 14 13 13 12 11 13 18 19 19
7 6 7 4 1 1 1 1 3 3 5 4 3 5 4 4 5 5 2 2 6 6 2 2 1 1 8 8 3 4 4 7 11 13 15 22 24 25 29 31 29 25 22 19 20 22 21 21 21 21 21 20 20 20 21 21 21 21 20 20 20 20 20 20 19 19 17 17 17 17 16 15 14 14 15 14 15 16 16 14 16 16 14 14 15 15 14 14 12 12 12 11 9 11 16 17 17
5 5 6 5 2 1 0 2 3 5 7 5 5 4 3 5 5 4 4 3 4 5 4 2 1 4 8 5 6 5 4 8 10 15 19 20 23 26 29 33 28 24 22 21 23 24 22 21 21 21 21 21 21 21 21 22 22 21 21 20 19 20 19 19 19 17 17 17 17 16 16 15 14 14 14 14 15 16 15 12 14 15 13 14 14 14 13 13 11 10 9 8 8 10 13 15 15
3 3 3 3 2 2 1 4 5 5 8 8 6 3 2 4 2 3 7 5 4 3 4 0 3 8 5 3 6 12 19 18 12 16 23 22 24 28 32 34 31 28 23 23 25 25 22 21 22 21 21 22 21 21 22 22 23 22 22 20 19 19 19 18 17 16 17 18 16 15 16 15 14 14 14 15 16 15 14 12 13 14 13 13 13 12 12 11 10 9 8 8 8 9 11 13 13
5 3 1 1 1 2 2 4 6 5 9 9 4 4 2 4 3 3 6 3 3 1 4 3 3 8 5 6 6 12 26 27 25 27 30 26 24 25 28 32 32 29 26 26 26 25 23 22 22 22 21 21 21 21 22 23 23 23 22 20 19 18 19 18 16 16 18 17 15 14 16 15 14 14 14 15 15 14 13 13 13 13 12 12 12 11 11 9 8 8 8 8 9 8 10 12 11
6 3 1 1 1 3 3 5 6 7 11 9 4 5 4 4 3 4 3 1 3 2 2 4 4 7 6 12 9 7 18 27 33 30 29 27 25 24 28 31 31 30 28 28 28 27 26 24 23 22 21 21 21 22 22 23 24 23 21 19 18 19 20 18 16 17 18 16 14 15 15 14 13 13 14 15 15 14 13 13 13 13 12 12 11 10 9 8 7 8 8 8 8 8 10 11 11
3 4 1 1 2 4 5 6 6 7 11 7 6 6 5 4 3 3 2 1 3 3 2 1 9 11 9 10 6 4 11 25 32 27 25 26 25 26 30 31 31 30 29 30 30 29 28 26 24 23 22 22 22 22 23 23 23 22 20 19 20 21 21 19 18 18 18 15 15 16 15 14 13 14 14 14 14 14 14 14 13 12 12 11 10 9 8 7 7 8 7 7 7 8 10 11 12
1 3 2 2 3 4 5 6 7 8 8 3 4 3 4 4 4 2 3 2 4 4 4 2 9 13 12 7 3 6 15 26 30 24 24 25 25 28 29 29 28 27 28 30 29 29 29 27 26 25 25 24 24 24 24 23 23 22 21 21 22 23 21 19 18 18 17 15 17 16 15 14 14 14 14 13 14 14 14 14 13 12 12 11 9 8 7 7 8 8 7 7 8 8 10 13 14
2 3 2 3 4 4 5 6 7 7 4 2 3 1 1 4 5 3 6 5 6 6 4 3 7 11 10 5 4 9 19 24 25 24 24 26 27 28 27 28 27 25 28 30 29 29 28 28 27 27 26 25 25 25 24 24 24 23 22 23 24 23 21 19 18 18 17 17 18 17 15 14 13 14 14 13 13 13 14 13 13 12 11 10 9 7 7 8 8 8 7 8 8 9 11 14 15
3 4 1 4 4 4 6 6 7 5 3 2 1 1 0 5 6 5 6 4 6 6 6 7 9 10 7 4 6 9 14 17 22 25 24 25 27 28 27 27 27 26 28 29 28 28 28 28 28 27 26 25 25 25 24 25 24 24 24 25 24 22 21 20 19 19 18 19 19 17 15 13 13 12 13 13 13 13 13 13 12 11 11 10 9 7 7 8 8 7 7 8 9 10 12 15 15
4 3 3 4 4 5 5 5 6 2 1 3 2 1 2 5 4 4 4 4 6 2 5 9 11 11 6 4 6 6 8 16 22 24 23 25 28 30 29 28 28 27 28 28 28 28 28 28 28 27 26 26 26 25 25 25 25 25 25 26 24 23 22 21 20 20 19 19 18 16 15 13 13 11 13 13 13 13 13 12 12 11 10 10 8 7 7 8 7 8 8 9 10 10 12 16 15
6 3 3 4 4 5 4 6 6 0 2 4 2 0 3 4 4 4 3 2 6 3 4 6 6 7 6 7 5 7 13 20 21 22 24 26 29 30 30 28 27 27 27 28 28 28 28 28 27 27 26 26 26 26 26 25 25 26 26 25 24 23 22 21 21 20 19 19 17 16 14 13 12 11 12 14 13 13 13 12 12 11 10 9 7 6 7 7 8 8 8 9 10 10 12 16 15
5 3 2 3 4 6 4 5 5 1 2 1 3 5 4 4 4 2 3 3 4 4 4 3 3 4 7 7 11 18 23 24 22 24 26 27 27 28 27 26 24 25 25 26 28 28 28 27 27 26 26 26 26 27 26 25 25 25 25 24 24 22 21 22 21 20 19 19 17 15 14 13 12 11 12 13 13 12 13 12 12 11 9 7 6 6 7 7 8 8 8 9 10 11 13 16 15
4 3 3 4 5 5 4 3 2 2 0 3 6 6 4 3 2 0 0 1 4 3 7 5 5 5 7 12 25 33 29 25 26 25 25 24 23 23 22 22 22 22 22 23 25 27 27 26 26 25 25 26 26 26 25 24 24 24 24 23 23 22 22 22 21 19 20 20 18 16 14 14 13 11 12 12 12 12 12 12 11 10 8 6 6 6 6 7 8 8 9 9 10 13 14 16 14
4 3 4 5 5 5 5 3 1 3 1 3 4 4 4 4 4 3 3 4 2 7 11 9 11 11 15 24 34 36 30 27 27 25 21 19 19 18 17 18 19 20 21 21 23 26 26 24 24 25 25 25 25 24 23 23 23 24 24 23 22 22 23 22 21 20 22 21 19 17 15 14 13 12 12 12 12 12 12 12 12 10 9 7 7 7 5 7 8 8 9 9 11 13 14 14 13
4 2 4 5 5 6 7 5 2 4 3 3 4 4 4 4 5 4 4 7 4 10 9 10 13 13 17 24 29 30 29 26 25 23 20 17 17 16 15 16 17 18 20 20 22 24 24 23 24 25 25 26 25 23 23 23 24 24 24 23 22 23 23 21 22 23 24 22 20 19 17 15 14 13 12 12 12 12 12 12 12 10 9 8 8 8 7 7 8 8 9 9 11 11 12 11 10
4 3 4 6 7 8 9 7 2 6 6 6 6 6 5 5 4 3 3 8 5 9 8 9 11 12 14 17 21 23 22 21 22 22 19 17 17 16 17 17 17 18 19 19 21 22 23 23 23 25 26 26 25 24 23 23 24 24 24 24 23 22 22 22 24 25 25 23 21 20 18 16 15 14 13 12 12 12 12 12 11 10 9 7 8 9 8 8 9 9 8 9 10 11 11 9 8
3 5 7 6 6 8 11 7 4 7 6 5 4 5 6 6 3 1 3 7 4 6 8 11 13 14 15 14 16 18 16 15 17 18 17 17 16 16 16 17 17 18 17 18 19 21 22 23 24 25 26 26 25 25 24 24 25 25 24 24 23 22 22 24 25 25 24 23 21 20 18 17 15 15 14 14 14 14 13 13 11 10 8 5 7 9 8 8 10 10 8 10 11 10 9 7 7
3 6 10 8 8 8 10 6 5 5 5 4 0 2 4 5 4 2 1 5 2 4 6 11 13 15 16 15 14 14 12 11 12 13 15 15 16 16 16 16 17 17 17 18 19 20 22 22 24 26 27 27 26 26 26 25 25 25 24 24 23 23 23 25 25 25 24 22 21 21 19 17 16 16 15 14 14 14 14 12 11 9 7 5 6 8 7 7 11 11 9 11 10 9 7 5 6
3 6 7 8 9 8 9 6 2 4 4 3 0 2 4 4 5 2 1 6 6 4 8 11 12 14 16 14 13 13 11 9 9 10 13 15 16 18 19 18 18 19 18 17 18 20 22 22 25 28 28 28 27 27 27 26 25 25 24 24 24 23 24 25 25 25 23 22 21 21 20 18 17 17 15 14 14 14 13 12 9 8 6 5 6 7 7 6 10 11 11 11 9 8 4 5 9
6 6 7 7 8 8 9 7 2 2 1 1 0 3 5 4 4 3 3 7 9 4 9 14 12 14 15 14 13 13 11 9 8 11 15 16 14 15 18 20 20 20 19 18 19 21 23 25 26 29 29 28 28 28 28 27 25 23 23 24 24 23 23 24 23 23 22 21 20 20 21 19 18 18 16 14 14 14 13 11 9 7 6 4 5 8 8 5 7 11 10 9 8 5 3 5 10
7 6 8 7 8 9 8 6 5 3 3 2 1 3 5 6 3 2 6 8 10 5 9 14 13 13 12 14 15 13 10 8 9 10 14 13 10 12 15 19 21 20 20 21 22 23 26 26 25 28 29 28 29 29 29 27 25 23 23 24 24 23 22 22 21 21 20 20 20 20 20 19 18 18 17 15 14 13 12 11 8 6 5 3 5 7 7 4 6 10 9 7 6 4 6 5 11
7 8 8 7 8 9 7 6 6 4 2 1 2 5 7 6 4 4 7 8 10 5 9 14 13 13 11 13 14 12 10 8 7 8 11 10 10 15 17 19 23 22 21 23 25 26 27 26 24 26 29 29 30 29 28 27 26 24 24 24 24 24 23 21 20 19 19 19 19 19 19 18 18 17 17 15 13 13 12 11 7 6 6 5 6 7 7 7 8 9 8 7 6 4 2 3 11
6 8 8 9 9 8 6 6 6 4 3 5 5 6 6 6 3 4 7 9 10 8 6 12 12 11 10 11 10 10 10 9 10 11 11 12 11 16 19 19 21 22 22 24 27 27 27 26 25 25 28 29 28 26 25 26 27 26 24 24 24 23 24 22 19 19 18 17 17 18 18 17 17 16 17 16 13 12 12 10 8 8 8 8 8 7 7 9 10 10 11 11 6 2 7 9 11
5 3 4 8 8 6 6 6 7 5 3 5 5 5 6 5 5 5 8 7 9 10 5 12 11 10 10 10 9 8 8 10 14 12 10 11 12 17 19 19 21 22 23 25 27 27 25 25 25 25 26 27 26 24 25 26 26 26 24 24 24 23 23 21 19 17 16 15 16 17 18 17 16 16 17 16 12 12 12 10 9 10 9 9 10 8 7 8 9 9 11 12 7 3 9 12 11
7 4 4 6 5 5 7 7 7 5 3 4 3 4 6 6 8 10 9 8 9 9 7 12 10 9 9 9 9 7 8 11 13 11 11 12 14 18 18 17 20 22 23 25 28 28 25 24 26 27 26 26 27 26 26 25 24 25 24 22 23 22 21 20 18 16 14 16 17 16 17 16 15 16 16 14 11 12 12 10 8 10 10 10 10 8 8 8 9 9 10 11 8 5 9 13 12
6 5 3 4 5 6 9 8 8 7 6 6 5 3 7 7 9 11 9 9 11 7 8 11 9 8 8 8 7 7 8 10 10 11 14 15 17 19 17 18 20 23 24 25 27 27 25 25 27 27 26 28 30 28 26 24 23 24 23 21 20 19 19 19 17 15 14 16 16 15 15 15 15 15 14 12 12 13 12 10 9 9 10 10 9 8 9 10 9 9 10 11 9 8 11 13 11
4 4 3 2 2 8 9 8 9 9 8 8 7 3 7 8 8 10 8 10 12 7 10 10 9 8 7 7 7 7 7 8 11 12 14 11 10 10 10 13 15 18 24 25 26 26 25 27 27 25 26 30 30 28 26 24 24 24 22 20 18 17 18 18 17 16 15 15 15 14 14 14 15 15 14 13 14 14 12 12 11 10 10 10 9 9 9 10 9 9 10 10 9 12 14 12 9
3 2 4 2 4 9 10 8 10 11 8 9 8 3 7 9 9 11 8 11 11 7 12 10 10 9 7 6 6 7 6 8 12 13 13 10 9 12 12 13 12 15 21 21 20 23 25 26 27 25 26 30 28 26 25 24 23 22 20 17 16 16 17 17 18 17 16 16 15 14 15 15 15 15 14 14 14 14 12 12 12 12 12 11 10 10 9 10 9 10 11 8 11 14 12 12 11
3 3 4 3 5 8 7 8 13 15 8 8 9 3 5 8 9 9 10 14 11 9 12 10 10 10 7 6 6 6 5 6 8 13 18 17 18 21 21 19 18 20 23 20 15 16 20 24 24 24 26 27 27 26 22 20 21 19 17 15 14 15 16 17 16 16 17 17 16 14 15 15 14 14 15 14 13 13 14 13 13 13 13 13 13 12 11 11 11 12 10 8 13 16 12 12 13
3 3 4 5 7 7 6 7 8 15 8 5 8 4 5 10 11 9 9 5 12 11 12 11 10 9 8 6 6 6 6 6 6 11 17 21 24 23 20 18 18 21 23 22 19 13 12 15 15 17 21 19 22 25 15 12 15 14 15 14 13 14 14 15 14 13 15 17 18 17 15 14 13 14 15 14 12 13 14 13 13 13 13 13 15 14 12 12 11 11 10 15 17 15 12 12 12
5 5 5 6 8 8 8 6 3 11 7 5 8 5 7 12 12 8 5 5 12 11 11 10 10 9 8 7 7 6 6 5 5 10 17 22 25 24 20 17 18 20 19 18 19 16 13 14 11 9 12 11 16 21 13 10 12 12 13 11 11 14 14 14 13 12 14 16 18 18 16 14 12 13 13 13 11 12 13 13 14 14 13 12 14 14 12 12 11 11 10 17 18 12 10 12 14
10 8 5 6 6 8 10 7 7 11 7 6 9 7 8 9 9 8 4 1 6 9 10 9 9 9 8 7 6 6 7 5 4 10 17 22 24 23 21 20 21 22 20 18 19 20 18 14 10 5 10 15 17 18 17 17 15 12 11 10 12 16 15 15 14 13 15 16 17 17 17 15 14 14 13 12 11 12 14 14 14 15 14 13 13 13 12 11 11 12 11 13 19 17 15 15 16
11 9 6 6 4 7 9 5 10 11 6 6 8 6 6 7 8 8 5 3 1 5 9 10 10 9 8 8 8 8 7 5 4 9 15 21 24 23 23 23 24 24 22 23 21 21 19 16 15 10 10 15 16 20 25 25 20 17 17 16 16 17 16 15 13 14 15 16 16 17 18 17 16 17 16 15 15 16 17 15 14 15 15 14 13 13 13 12 11 12 12 11 16 21 21 18 19
10 7 5 6 4 6 9 4 10 9 4 4 5 4 4 6 6 9 8 4 3 4 8 10 11 10 9 10 10 8 6 5 5 7 12 18 22 23 25 25 25 25 23 22 21 18 18 19 21 20 18 21 21 22 25 25 24 23 24 24 22 20 18 16 14 14 15 16 16 18 20 18 17 19 19 18 18 18 17 16 15 15 14 14 13 14 14 14 13 12 13 12 13 17 20 20 22
9 6 4 5 5 5 8 6 6 6 3 4 6 4 5 6 4 7 8 6 5 6 11 12 12 12 10 10 11 9 7 7 6 6 9 15 20 24 26 25 26 27 24 27 28 19 20 22 22 22 22 22 22 23 23 23 24 23 21 23 24 22 19 17 16 16 17 17 18 19 21 20 17 19 19 19 19 18 16 15 15 14 14 13 13 14 14 14 14 12 13 14 14 15 17 20 21
6 5 3 4 6 5 5 6 4 1 2 5 6 3 3 3 4 6 8 8 8 6 9 13 13 14 14 13 12 11 10 9 8 7 8 12 21 23 24 26 27 28 26 34 38 26 25 28 25 25 26 25 26 27 25 23 22 21 18 19 22 20 17 16 17 19 20 21 20 21 22 22 19 18 20 20 18 17 15 14 14 14 13 12 13 13 13 15 14 13 12 12 13 16 17 18 16
5 6 4 4 6 6 4 7 8 4 3 3 5 1 3 2 1 5 7 7 8 9 7 9 11 13 15 15 13 13 13 13 11 9 8 10 17 20 23 26 27 28 27 31 37 33 30 34 32 29 30 29 28 31 29 25 24 21 18 18 19 16 16 17 18 21 23 23 22 22 22 22 20 19 19 19 18 17 14 13 14 13 12 12 12 11 12 14 14 13 13 11 13 15 16 17 13
4 3 3 4 6 7 7 8 9 6 5 5 0 2 6 3 3 6 7 8 7 8 10 8 8 10 11 12 12 11 10 10 10 11 9 10 16 19 22 26 26 27 25 26 32 34 34 35 34 31 31 30 31 33 32 31 30 27 25 24 21 17 17 20 22 24 25 24 23 22 22 21 19 19 18 18 17 16 14 13 13 12 12 13 12 11 11 12 12 13 13 13 13 13 14 17 15
2 1 2 5 5 8 10 10 7 2 3 6 2 2 6 3 3 7 7 9 10 8 10 11 9 8 9 11 12 10 8 7 7 7 9 11 14 16 18 22 25 25 24 26 29 30 31 31 32 32 30 29 30 31 31 33 34 33 31 30 27 23 23 23 24 25 25 25 23 22 21 20 18 18 17 16 15 15 14 13 12 11 11 12 11 10 11 11 12 13 13 13 14 15 17 19 18
3 3 3 7 6 8 10 9 6 3 4 5 3 2 3 4 4 7 6 8 11 10 7 5 3 1 6 10 12 12 10 8 6 7 12 12 11 13 16 20 23 23 22 25 26 25 27 30 30 32 31 29 29 27 28 34 37 37 35 32 30 28 27 26 25 24 23 23 22 22 21 19 17 17 16 15 14 14 15 13 11 10 10 11 11 10 9 9 10 11 12 13 14 18 20 19 20
4 5 6 9 8 10 11 8 6 4 5 6 4 4 2 5 5 7 8 6 4 3 2 6 9 8 6 6 7 8 7 6 7 9 12 12 14 17 20 23 23 23 22 24 25 23 24 26 25 26 25 25 26 24 22 26 30 32 34 33 31 29 28 26 24 23 22 22 21 21 20 20 19 18 16 16 15 16 17 16 13 12 11 11 12 11 9 10 10 12 14 14 15 18 18 17 19
6 7 8 8 8 7 4 4 3 2 3 5 3 1 1 5 5 4 4 3 2 1 4 7 10 11 9 6 6 5 5 6 8 9 10 13 19 23 25 25 25 23 22 24 24 22 21 17 13 11 11 14 20 21 17 18 20 22 26 31 31 29 26 24 24 23 21 21 21 21 21 21 19 18 16 16 16 17 17 17 15 13 12 12 12 13 13 13 13 14 15 15 14 16 16 15 16
6 8 8 7 7 4 1 2 3 3 3 5 4 4 4 4 5 4 3 3 4 2 5 6 8 12 10 8 7 6 7 7 7 7 6 11 20 24 24 24 27 26 26 27 23 20 16 8 4 3 3 6 12 17 16 14 17 18 21 26 29 27 25 26 26 24 22 22 21 21 21 20 18 17 16 16 17 17 16 17 15 12 13 14 12 13 14 13 14 14 14 13 13 14 16 16 15
4 5 6 4 5 3 2 1 4 2 4 4 4 5 4 4 3 4 4 6 7 6 7 8 9 10 9 9 9 8 8 8 8 7 5 6 10 14 17 22 25 19 16 16 13 12 10 5 4 4 4 5 9 17 18 13 16 19 19 23 26 26 26 28 28 27 25 23 22 21 20 18 17 16 16 16 17 16 16 16 16 15 15 15 13 13 14 12 13 14 13 13 13 14 16 16 14
4 3 6 4 2 2 1 2 2 2 5 4 5 7 4 4 4 3 5 7 8 8 8 10 10 8 8 9 10 9 8 9 9 9 8 6 6 5 2 6 8 2 5 7 8 9 9 7 4 4 3 7 10 17 19 15 17 20 18 20 24 25 27 27 28 28 26 24 23 21 19 18 18 17 17 17 16 15 16 16 17 16 14 14 13 14 13 12 14 14 12 12 12 12 14 14 13
5 3 5 5 2 1 2 2 2 3 5 6 6 5 3 1 2 3 5 6 7 8 9 10 9 9 9 9 9 8 7 8 7 7 5 3 4 5 8 10 15 13 8 11 10 6 13 11 6 3 5 11 14 17 20 18 16 15 14 15 19 22 26 26 25 26 25 23 22 21 20 18 18 18 18 18 18 17 17 17 17 15 12 13 14 14 14 14 14 13 12 12 12 11 12 12 13
5 5 4 5 4 3 3 2 3 4 4 3 3 3 2 2 3 5 4 5 7 9 8 10 10 9 9 7 8 8 7 7 6 6 4 1 2 3 0 6 15 14 2 9 10 15 21 19 14 9 8 13 16 16 17 17 15 12 9 10 14 18 23 25 23 24 24 21 19 19 19 18 17 18 18 18 18 17 17 17 17 15 13 15 16 16 15 15 14 14 13 13 12 11 11 12 13
4 5 5 5 5 5 4 4 5 3 1 2 0 2 2 2 4 5 3 6 8 10 11 13 12 9 9 8 8 8 7 7 6 6 5 2 3 3 2 5 6 3 4 11 15 19 20 19 17 12 8 12 15 13 13 14 13 12 10 10 12 14 19 23 22 21 20 19 18 18 18 18 18 19 20 19 18 18 18 18 18 16 14 15 16 16 16 15 14 14 13 12 13 12 12 12 12
3 3 4 6 6 6 4 5 4 3 2 3 1 2 1 1 3 5 4 7 8 11 11 11 11 10 11 9 8 8 7 7 6 5 5 3 3 5 6 8 8 6 6 10 14 12 10 14 17 15 12 14 16 14 13 12 11 12 13 15 15 14 17 21 22 21 20 19 19 19 18 19 19 20 21 20 19 19 19 18 18 16 14 14 15 15 15 14 13 14 14 13 12 12 12 12 11
3 3 5 4 3 2 2 2 2 1 2 4 2 5 2 1 1 4 4 7 8 10 10 10 10 10 9 7 6 7 6 6 5 5 5 3 2 2 4 5 4 6 7 10 13 9 5 8 14 17 14 15 18 16 13 13 13 14 16 20 21 20 19 21 22 22 21 21 21 19 19 20 20 20 21 21 20 18 18 18 17 16 16 16 16 15 15 15 14 15 15 13 12 12 11 10 11
7 5 5 3 3 3 2 3 2 1 2 3 1 4 2 2 1 4 5 7 8 10 9 10 10 9 7 6 6 6 6 5 5 5 4 3 4 5 6 6 6 9 10 6 4 4 3 3 9 14 13 14 16 15 14 14 14 16 17 19 21 20 20 20 21 21 21 22 21 19 20 23 22 21 21 21 20 19 19 18 17 18 17 16 16 14 15 16 16 16 15 13 12 12 11 10 11
8 5 4 2 3 4 3 4 4 3 3 2 0 2 0 1 1 4 7 8 9 8 7 7 7 6 5 5 6 5 4 4 5 6 5 4 4 3 5 10 11 12 12 11 9 7 4 2 3 6 7 10 13 14 15 15 17 22 21 19 19 18 19 19 20 21 22 22 20 19 23 26 24 22 22 21 19 20 20 18 18 18 15 15 16 15 15 18 17 15 14 13 14 13 12 11 11
6 4 3 3 2 3 2 3 3 4 3 3 2 1 3 2 2 5 7 7 7 7 6 5 5 7 7 6 6 4 3 5 6 6 5 6 7 8 9 14 14 14 15 14 12 12 9 5 3 3 2 8 10 13 17 18 23 28 25 20 19 18 19 20 21 22 22 20 19 22 25 26 24 22 21 20 18 18 17 17 18 16 14 16 17 14 16 18 15 13 12 13 15 15 13 12 12
5 5 5 5 2 3 2 3 4 1 2 3 4 2 4 1 3 6 7 6 5 5 6 5 6 9 10 8 7 5 6 9 9 8 7 7 11 12 10 13 15 17 20 19 16 12 9 3 1 2 6 11 12 14 18 21 25 28 26 22 21 20 20 22 23 23 22 20 21 24 24 24 24 22 21 19 17 16 16 18 17 14 15 16 15 14 17 16 13 13 13 11 12 15 15 14 13
Wind_Direction
252 243 211 209 277 299 292 221 113 271 178 264 253 243 256 232 239 273 341 28 56 22 26 53 46 60 91 97 132 78 49 52 30 92 164 134 111 117 125 124 127 130 130 130 132 133 138 142 146 147 148 149 149 151 151 150 147 145 143 145 147 145 143 140 138 135 134 133 131 129 126 123 121 117 113 110 108 109 109 107 104 99 95 93 90 87 87 90 94 94 91 88 99 110 107 108 109
236 248 277 272 264 274 269 185 147 264 160 268 256 211 251 268 276 60 55 50 58 341 10 25 36 41 43 296 129 82 60 54 79 95 97 107 106 108 113 115 116 115 115 119 126 130 136 143 148 150 150 150 150 151 152 152 150 147 144 146 149 147 144 142 139 137 135 133 132 128 126 125 122 119 116 113 111 111 112 110 106 101 98 95 92 91 88 87 88 90 93 94 104 115 114 114 112
233 251 283 272 251 232 277 300 205 244 189 254 263 240 246 236 103 96 84 81 87 34 12 3 34 39 351 19 67 77 84 95 94 93 96 101 101 104 104 105 107 105 104 111 122 131 138 146 152 152 151 151 150 151 153 153 151 148 146 148 150 149 146 144 141 139 137 135 132 129 127 126 124 122 120 117 115 114 114 113 108 104 101 98 96 95 92 87 84 83 88 96 107 119 121 117 114
245 237 263 264 243 226 279 248 199 203 229 245 268 283 294 130 104 92 97 110 107 79 33 13 32 7 62 68 80 78 84 101 88 92 82 73 84 103 100 96 98 99 102 111 127 136 142 150 155 153 152 151 150 152 153 154 152 149 148 149 151 151 149 146 144 142 140 138 134 130 128 126 125 124 124 121 119 117 116 117 112 108 105 103 101 98 95 91 89 85 85 91 102 121 127 121 117
257 238 250 249 223 220 187 253 210 201 229 230 251 299 22 67 49 64 68 96 111 105 102 62 36 355 66 61 63 88 89 96 79 79 71 59 72 89 92 94 99 105 112 126 137 142 148 151 154 153 153 151 150 153 153 153 152 151 151 153 154 153 153 149 147 145 143 140 136 132 129 127 127 129 129 125 122 120 121 124 118 114 112 109 103 100 98 94 92 90 91 96 101 123 131 126 121
266 265 253 233 247 306 59 263 249 244 241 228 241 284 43 61 24 358 359 52 81 95 123 93 99 75 76 64 51 52 58 99 84 80 85 81 93 100 105 110 116 126 132 143 144 144 148 151 154 153 154 152 151 151 152 154 154 155 155 156 157 156 155 152 148 146 145 143 138 134 134 132 132 136 134 130 128 127 132 132 121 117 115 109 103 100 99 98 97 98 100 103 107 125 136 133 127
258 290 267 210 265 286 180 254 252 265 258 244 238 233 133 89 70 359 9 36 22 46 122 213 140 97 83 102 76 48 57 88 97 97 109 114 118 116 122 130 136 139 140 145 141 141 147 153 155 155 155 154 152 151 153 156 157 158 157 156 156 158 157 154 149 149 148 145 140 138 142 139 139 142 137 135 133 135 140 133 121 118 114 109 104 101 102 103 105 105 103 101 104 121 136 135 132
238 261 288 149 278 242 200 251 249 255 263 263 230 177 124 90 102 51 21 31 357 3 152 234 139 89 59 81 86 50 59 86 99 102 108 111 117 119 131 140 140 136 136 140 139 140 148 155 156 155 154 154 155 155 157 158 158 157 156 155 154 159 159 155 151 151 152 148 142 142 149 146 146 146 141 139 138 141 140 132 125 120 118 114 109 106 108 108 107 103 97 95 96 111 129 134 134
233 221 298 208 212 255 240 250 250 242 252 261 200 152 112 114 110 87 62 352 301 304 199 224 118 96 90 80 81 56 59 87 99 103 105 107 118 129 142 144 137 131 134 141 145 146 150 155 154 153 152 154 156 157 160 159 159 158 157 156 155 159 157 154 151 153 155 153 146 146 153 152 152 150 146 144 144 146 140 134 131 125 123 118 115 115 116 115 111 100 91 89 93 107 123 131 131
217 193 228 253 217 258 256 255 254 247 249 236 173 156 136 139 92 84 111 233 290 337 313 43 101 109 103 82 74 64 76 96 100 104 114 116 123 136 145 142 139 136 138 145 150 150 151 153 152 152 152 154 157 158 160 159 161 162 160 158 155 155 154 155 153 154 158 156 151 152 154 155 155 152 151 150 150 151 144 140 136 130 126 123 124 124 123 125 116 98 87 87 91 105 120 128 131
231 215 190 254 256 252 248 256 258 263 258 195 136 140 141 123 91 66 19 3 335 334 292 358 99 107 94 86 82 82 87 97 103 111 121 119 121 137 141 139 144 143 142 148 150 151 151 151 152 153 156 158 160 159 159 160 162 163 160 157 154 153 154 156 154 154 157 156 154 154 154 155 157 156 154 152 153 154 149 145 141 136 131 132 134 130 129 126 111 94 87 90 93 100 117 130 131
243 250 172 224 233 230 243 259 262 275 292 94 76 352 156 102 98 82 39 17 338 323 315 58 118 109 93 100 107 91 85 97 115 121 122 118 124 137 138 139 147 147 147 151 150 151 151 151 153 156 159 160 161 161 160 162 163 160 158 156 154 154 156 154 152 154 154 155 155 155 155 157 159 159 159 156 154 153 152 150 147 142 139 140 139 137 131 120 107 95 90 92 95 99 117 134 132
222 249 207 239 235 237 255 263 267 289 8 74 147 243 337 66 66 47 43 356 321 316 352 71 116 102 91 110 108 95 86 114 130 124 124 126 132 135 135 142 148 151 151 152 152 152 154 155 157 158 160 160 161 162 163 164 162 159 158 157 156 157 158 156 154 155 154 154 155 156 156 157 158 159 162 161 158 155 155 156 152 148 146 145 143 141 124 115 109 97 92 95 97 100 119 136 132
211 242 218 254 268 267 271 271 276 311 124 237 229 197 41 61 80 62 52 315 299 286 35 75 110 97 97 134 117 104 112 139 133 124 128 128 134 135 137 145 148 152 152 154 154 153 156 157 158 158 159 160 161 163 164 165 163 160 159 158 159 161 160 158 157 157 157 157 157 158 157 157 158 160 164 165 165 162 161 158 155 154 154 152 151 141 119 115 111 99 96 101 101 100 121 136 131
212 246 230 263 281 278 274 265 274 148 199 250 273 328 69 75 106 105 111 250 277 258 61 74 108 105 145 167 142 139 148 152 140 127 126 125 131 134 136 140 146 152 154 155 154 156 158 158 159 158 160 161 161 162 162 163 163 162 161 162 162 161 161 161 160 159 160 160 160 160 158 158 159 162 166 170 171 170 169 164 159 158 155 159 161 137 119 121 115 103 101 107 106 102 121 134 129
212 237 250 272 266 273 265 268 297 83 224 314 16 358 49 82 92 110 153 161 283 313 44 57 81 123 169 162 131 139 145 146 141 128 121 124 128 129 132 137 145 151 153 154 155 158 160 160 160 159 161 161 161 161 162 163 164 165 165 164 162 161 162 162 161 161 163 163 162 162 159 158 159 164 169 173 176 177 176 171 166 161 157 161 159 130 119 128 122 109 108 113 112 108 120 132 126
217 221 249 271 255 261 260 274 336 105 258 45 44 8 24 55 47 75 220 208 273 17 62 56 54 94 129 123 127 137 139 135 134 126 119 123 127 128 131 137 145 150 155 158 159 161 161 161 159 158 160 161 162 162 162 164 166 168 166 164 163 161 162 162 161 163 166 165 164 164 163 161 163 166 170 177 182 184 183 180 174 166 161 155 139 123 121 134 130 117 115 118 120 116 122 127 121
225 192 216 250 246 244 255 264 139 127 67 58 63 19 12 16 4 351 359 325 298 71 66 60 54 62 93 113 126 134 136 134 134 128 123 129 133 132 134 141 146 151 158 162 162 162 160 159 159 160 161 163 164 162 164 164 167 168 166 165 164 162 163 162 161 164 166 166 165 164 165 166 166 168 171 180 185 188 188 184 180 170 166 158 136 127 127 140 140 130 122 121 129 129 130 127 119
216 187 215 231 241 250 266 284 72 92 65 41 53 48 13 5 357 350 342 318 9 87 84 78 77 78 95 113 124 133 137 136 135 133 134 139 141 141 142 148 150 154 161 164 163 161 160 158 160 162 162 165 165 164 165 165 167 168 166 166 164 164 166 165 162 162 163 165 167 166 168 170 169 169 170 176 181 187 187 184 182 175 178 174 156 146 139 148 151 143 134 128 135 139 141 137 126
209 196 238 238 244 262 277 286 54 76 58 28 21 30 350 338 342 339 325 325 31 112 127 112 111 115 116 123 128 134 137 137 137 138 140 141 144 148 152 157 159 161 164 164 162 161 162 159 161 163 163 166 166 165 166 166 169 169 167 167 166 167 169 165 161 161 162 165 169 169 171 173 171 169 168 169 175 183 184 182 178 176 185 180 170 168 155 155 161 158 148 136 137 138 140 142 140
194 196 234 253 265 278 286 295 68 78 72 54 2 356 326 310 307 341 342 337 44 141 164 143 145 137 131 135 134 137 138 138 140 140 141 139 145 155 161 164 162 163 163 164 163 162 163 163 164 164 165 169 168 167 167 167 169 170 169 167 167 170 168 163 160 161 163 167 171 173 175 174 172 170 169 170 175 179 179 178 177 177 185 171 170 179 170 165 168 168 159 147 141 140 141 138 143
195 222 231 248 265 276 287 314 62 77 80 87 274 283 286 296 310 38 357 294 244 185 167 142 145 139 138 142 137 135 133 139 147 143 138 136 145 157 164 163 159 160 162 165 166 165 167 169 167 166 169 173 171 169 167 166 169 170 168 166 168 169 168 163 160 163 167 171 173 176 179 178 176 174 174 175 176 179 180 179 178 178 179 167 167 173 175 178 175 173 167 158 152 154 163 168 173
214 248 240 241 248 260 278 301 39 104 96 87 103 311 309 317 316 342 272 265 262 214 149 135 138 137 139 137 131 129 133 153 150 126 124 134 149 160 163 161 160 161 161 164 168 169 173 175 172 171 174 175 173 170 167 168 169 169 166 166 167 169 170 167 164 168 171 174 175 178 181 182 181 178 179 179 178 180 181 179 175 169 164 166 169 162 163 172 180 181 172 169 169 171 194 227 204
215 254 259 254 254 257 266 281 302 93 62 294 342 333 312 307 312 332 296 274 282 275 138 135 135 134 134 125 122 130 145 156 123 113 132 143 151 158 160 161 163 163 161 164 169 176 182 182 177 176 176 174 172 170 169 169 167 168 170 170 171 174 175 172 171 172 174 176 178 181 182 183 185 182 180 180 178 178 178 175 171 167 159 158 167 163 158 156 181 182 170 174 183 191 264 247 194
215 247 262 265 271 269 270 284 291 314 319 295 301 285 271 270 275 280 276 270 282 298 128 137 135 132 131 122 124 134 152 148 116 127 145 144 141 148 158 160 162 164 165 169 173 181 188 186 180 177 176 174 173 173 171 168 166 171 176 176 176 180 182 178 177 176 176 178 181 185 187 187 188 186 181 178 176 175 172 167 167 177 176 174 180 178 182 186 181 170 158 170 199 247 285 233 184
205 225 248 252 261 271 278 286 280 278 256 201 252 257 254 253 250 250 250 251 274 289 125 134 132 127 122 120 128 141 151 144 134 142 147 153 151 152 163 162 163 169 170 173 177 183 189 186 181 181 178 177 176 174 171 168 170 175 179 181 180 183 186 183 181 181 181 182 186 191 196 195 192 188 180 175 176 176 170 165 176 201 204 209 214 207 209 208 186 176 181 191 213 256 315 176 176
213 218 242 250 257 269 282 288 276 272 233 207 216 241 258 252 241 245 240 230 250 263 141 127 123 122 121 120 127 137 141 143 154 156 151 163 166 163 173 172 170 173 168 172 180 184 186 183 182 183 182 180 174 170 172 175 178 180 181 184 183 183 185 184 184 185 185 187 191 196 198 198 194 186 179 176 178 176 169 167 185 201 203 205 208 199 187 182 172 177 191 187 180 121 90 110 149
273 254 258 257 265 278 286 291 282 289 256 213 212 246 269 265 252 239 245 238 230 243 175 130 126 126 124 121 119 124 137 146 155 163 162 167 176 178 183 183 177 174 169 174 182 183 181 180 182 184 184 180 170 168 176 180 184 186 186 185 182 182 183 185 186 188 191 190 192 194 192 193 191 186 181 180 180 177 173 173 182 190 194 192 190 187 175 172 171 166 176 179 171 120 105 108 123
285 279 284 276 292 284 265 262 257 262 248 213 205 268 270 251 244 236 241 253 246 239 160 132 132 132 126 120 122 130 138 145 155 169 171 170 179 183 188 187 175 168 173 182 183 181 178 177 183 186 184 177 170 175 179 180 188 191 190 186 182 182 183 187 188 187 188 186 188 192 192 191 188 188 187 184 180 173 171 171 175 182 186 183 177 180 180 180 182 174 176 181 179 155 122 117 118
271 262 269 293 325 285 250 240 231 228 229 205 177 254 270 243 237 238 224 226 244 233 148 138 139 132 130 128 132 138 135 149 167 172 171 174 179 186 190 181 168 164 175 188 184 178 177 179 185 186 182 176 174 180 179 178 190 193 191 187 181 180 180 184 185 181 181 183 186 189 192 189 181 184 188 186 176 164 160 161 164 170 174 181 182 180 174 169 170 171 169 167 159 140 124 121 122
266 256 262 255 286 272 250 230 219 215 217 196 171 219 262 257 252 255 234 217 233 201 142 139 139 129 132 138 137 141 146 163 172 173 175 172 163 173 180 165 158 164 177 187 185 180 179 182 186 184 181 178 175 180 179 178 186 190 191 188 181 176 174 175 173 172 175 178 179 178 179 179 179 184 185 179 171 163 160 162 167 165 160 166 178 175 161 157 158 154 157 158 137 125 123 121 125
264 219 275 235 201 258 259 238 212 203 208 180 159 199 261 270 258 257 250 222 225 162 136 138 133 132 136 142 138 142 161 170 171 166 150 131 135 151 160 159 155 163 177 185 187 184 180 183 188 184 180 179 179 182 178 175 178 181 186 187 182 177 172 172 172 172 176 174 172 171 168 170 178 184 185 181 175 172 167 166 171 167 157 154 161 167 163 163 165 160 167 167 136 129 129 128 132
256 180 241 245 219 256 269 256 212 194 202 171 153 161 257 278 262 268 268 218 192 128 135 142 132 137 142 142 138 144 162 167 159 139 126 131 150 158 161 167 168 167 174 179 185 192 185 184 188 182 177 176 181 184 175 173 177 170 169 174 176 178 176 176 178 179 179 176 174 173 170 169 174 181 187 186 182 181 173 171 174 166 160 158 162 173 174 172 172 171 166 140 137 143 146 145 144
277 201 220 241 241 255 269 279 207 180 191 165 147 152 224 266 273 294 309 177 139 127 147 149 140 145 145 141 141 148 157 161 149 135 136 139 143 151 155 158 159 157 166 171 172 187 194 191 189 181 177 168 173 180 166 155 168 160 159 166 168 175 181 176 176 180 179 180 181 178 175 172 175 178 184 188 183 178 172 172 172 165 165 166 170 177 176 173 170 173 150 118 131 151 155 159 157
247 218 210 234 245 253 253 277 188 168 184 158 148 177 226 256 272 290 318 109 127 147 156 149 147 146 146 147 148 151 148 158 160 142 141 137 136 146 149 142 139 141 154 165 163 170 186 200 204 181 163 133 150 176 173 147 152 157 168 173 172 177 182 170 164 175 183 188 186 184 184 182 183 179 180 187 181 172 170 172 173 170 170 171 174 176 173 173 166 170 156 118 120 141 154 157 156
242 239 216 220 237 251 248 240 187 172 180 169 162 190 229 254 276 292 297 180 153 152 144 148 151 146 149 148 149 154 147 152 154 135 135 137 140 144 142 135 129 128 142 153 151 159 167 180 190 143 114 112 125 153 167 164 149 145 161 166 178 186 182 170 166 177 188 195 194 192 192 187 187 184 180 184 180 177 179 180 178 174 175 176 178 176 169 173 170 171 173 130 119 130 139 145 157
254 269 266 253 253 257 269 239 175 162 158 192 180 184 232 265 287 298 318 356 282 154 139 147 153 153 155 151 163 168 156 153 142 131 132 139 143 142 137 132 126 121 134 148 145 149 153 158 174 173 159 164 161 153 160 171 164 158 165 168 182 193 185 172 174 184 192 200 201 195 191 186 186 185 181 183 185 188 188 186 182 176 179 182 182 181 174 175 177 174 173 147 130 136 139 144 156
266 277 285 294 302 271 293 286 182 165 130 189 166 149 250 274 294 300 314 338 273 192 149 148 151 156 159 156 170 179 161 148 137 127 132 140 138 130 126 127 129 121 127 146 143 146 160 168 183 191 192 191 183 164 163 175 180 175 174 175 183 193 187 172 173 189 196 200 198 187 184 184 183 182 181 184 189 191 190 189 188 182 181 183 184 184 181 177 173 173 168 151 140 141 143 148 151
266 279 299 306 304 291 310 310 202 162 114 179 164 158 247 261 275 294 302 301 265 200 166 164 156 154 168 170 170 182 172 152 156 153 147 141 122 113 121 128 130 124 129 146 144 157 186 183 189 197 194 184 168 160 166 178 186 185 181 182 185 188 185 173 170 183 187 187 186 181 185 188 182 181 184 188 191 192 190 190 191 187 182 181 185 184 183 178 167 165 165 151 146 145 147 155 154
249 251 275 276 277 284 301 311 297 133 152 183 157 163 249 280 313 305 292 290 287 254 179 168 166 163 173 181 174 179 181 173 175 171 154 130 110 113 129 131 133 135 145 154 148 161 191 189 192 196 189 180 166 163 170 176 181 186 189 191 189 185 181 171 166 172 176 178 180 179 186 189 184 183 188 191 193 193 190 189 190 190 185 181 183 182 180 176 164 159 159 155 161 156 152 163 168
249 223 218 246 267 273 271 301 313 331 305 210 132 89 275 239 297 301 290 290 292 279 236 181 178 178 177 180 179 181 184 180 180 176 162 129 116 128 140 136 141 150 158 166 158 160 182 191 196 195 187 183 174 167 171 174 171 177 189 189 185 179 170 164 164 170 175 177 180 180 182 185 185 186 187 189 192 192 188 189 192 188 185 184 182 181 179 174 164 160 156 159 181 172 157 164 175
257 219 214 258 291 301 301 311 322 352 335 288 204 313 285 232 202 255 270 277 276 266 259 230 197 190 180 174 178 185 189 183 179 176 159 125 124 138 143 142 149 157 166 176 170 165 175 185 192 192 189 188 180 170 171 173 169 173 181 182 181 172 164 171 174 174 176 176 179 181 181 182 186 186 186 187 189 191 187 189 193 187 183 187 183 179 178 170 166 171 164 164 185 184 164 160 163
238 271 295 260 265 289 293 299 307 331 285 285 309 245 273 288 242 242 241 253 256 250 253 248 228 200 168 162 172 178 185 183 177 157 111 104 128 140 146 154 159 164 174 181 178 175 175 178 187 190 190 191 184 175 175 173 170 172 175 178 182 177 172 180 183 178 178 178 178 180 181 181 186 187 185 184 184 186 185 185 191 188 185 187 188 189 181 163 166 179 171 167 181 182 176 168 161
201 217 263 257 237 240 258 268 270 265 269 296 360 103 269 296 268 259 253 247 253 260 267 274 295 199 148 159 170 172 177 177 157 109 94 105 133 138 146 159 161 166 178 183 183 185 181 180 187 190 190 192 186 181 181 177 172 171 170 172 179 181 178 179 181 180 179 181 180 181 182 180 183 185 179 178 181 183 180 177 184 190 188 185 188 200 194 169 175 183 167 167 178 178 181 175 163
201 196 225 251 246 229 230 237 242 252 266 290 344 36 328 280 272 281 278 265 261 282 18 57 57 70 108 133 147 157 161 134 100 99 110 125 138 146 157 164 165 169 178 183 186 192 193 192 193 190 188 189 187 186 186 183 176 171 168 168 173 181 180 175 175 177 178 180 179 179 181 179 181 183 178 179 184 184 181 176 177 184 184 181 184 191 187 173 179 185 173 172 175 175 183 180 166
192 206 231 251 260 253 226 203 207 233 252 268 299 64 251 277 300 312 292 300 319 77 87 70 75 91 102 107 114 117 99 90 97 111 128 140 147 156 163 166 171 176 181 186 191 198 201 207 213 199 181 183 189 189 187 187 183 172 168 168 170 175 175 168 166 171 176 179 176 175 179 180 182 184 182 184 185 185 184 177 172 178 179 179 182 180 176 176 180 185 181 179 176 174 180 179 172
176 201 233 255 269 288 296 174 103 60 281 261 245 204 201 264 320 360 13 1 347 56 74 54 80 98 97 92 90 80 67 70 83 91 114 138 149 158 160 165 175 181 183 184 186 190 193 209 259 269 218 192 191 190 186 187 187 178 174 172 170 170 167 163 163 167 174 179 179 177 178 181 183 186 185 185 185 185 182 173 163 170 182 181 183 181 177 179 183 184 182 179 177 175 174 175 175
188 185 196 232 284 314 329 328 74 65 263 248 259 254 224 231 283 347 3 6 14 42 50 47 76 93 87 80 72 63 59 59 61 55 54 94 130 153 158 170 182 181 178 179 167 153 138 87 10 323 257 205 186 186 183 186 190 183 178 176 172 168 165 165 165 168 174 181 183 180 179 181 179 181 184 182 182 180 175 167 155 161 181 181 176 183 182 177 177 178 176 172 174 175 175 176 173
227 179 156 172 295 343 329 312 125 197 248 234 253 264 242 216 237 306 10 17 17 34 50 60 75 77 65 68 67 61 58 57 56 47 33 32 38 31 64 192 216 241 85 93 83 109 123 94 47 357 258 203 187 182 183 192 196 187 180 177 171 167 168 170 168 170 174 180 183 180 178 177 172 170 174 172 167 161 156 148 142 152 176 177 169 173 174 171 174 175 169 166 169 172 174 178 177
218 187 142 151 166 150 247 257 188 222 247 226 216 231 250 264 252 295 4 26 29 40 52 65 82 88 75 71 78 80 78 74 73 66 43 16 50 33 355 343 343 359 66 94 80 147 188 184 172 190 221 203 189 183 186 192 194 190 189 182 171 170 173 174 172 171 173 176 178 177 174 171 166 161 161 157 149 145 141 137 140 150 161 167 169 168 160 157 164 168 166 165 169 172 172 176 178
218 200 150 153 162 167 217 209 187 229 259 246 193 175 208 204 235 274 341 27 48 50 45 50 60 76 81 71 73 75 72 74 78 90 86 3 83 107 30 17 13 12 84 171 169 184 197 194 182 184 199 194 186 182 183 188 188 185 187 180 172 174 176 175 174 172 172 174 173 170 167 165 161 155 151 147 143 145 148 148 154 159 150 145 154 160 157 153 154 157 162 166 170 174 175 175 176
245 203 163 181 187 171 212 226 200 180 66 334 54 139 201 199 258 283 8 41 51 51 43 48 46 46 56 48 48 53 51 59 59 72 82 60 87 114 135 95 63 33 217 220 208 196 193 182 169 160 166 185 186 179 179 187 186 172 167 175 177 178 176 173 173 172 170 170 167 163 162 162 161 155 149 147 148 153 154 152 154 161 160 153 153 156 156 158 159 157 154 161 169 174 174 173 176
266 231 188 200 189 156 178 240 239 124 118 259 171 119 297 356 318 312 45 54 54 57 47 48 44 38 45 39 38 44 43 57 64 70 71 66 126 167 178 162 165 168 189 237 240 217 183 163 160 152 154 178 183 179 179 184 179 160 161 175 181 186 179 173 173 170 166 167 164 160 161 163 162 158 154 152 154 154 154 152 150 156 165 164 159 155 155 157 157 153 146 145 155 163 166 169 172
233 267 221 192 181 166 158 228 277 98 178 258 166 147 193 144 264 312 51 63 55 56 50 47 43 39 40 34 41 51 49 55 61 71 73 53 68 112 129 145 139 106 140 215 239 231 172 145 157 159 164 177 180 180 183 186 181 168 169 178 182 184 179 174 174 169 165 167 163 161 166 167 162 159 158 156 154 153 154 154 152 154 157 154 149 147 152 152 146 146 143 137 139 143 146 157 164
200 237 233 176 160 217 229 211 221 141 178 268 159 127 117 130 223 333 29 56 55 52 45 43 44 40 32 23 40 58 60 56 39 41 51 40 47 65 69 65 58 71 95 132 189 217 207 151 153 160 168 176 178 181 182 183 183 176 179 187 185 181 179 178 175 169 167 166 162 161 166 165 159 156 155 154 154 154 153 153 154 155 156 154 149 146 148 148 144 147 148 143 143 139 135 143 150
199 233 257 220 175 173 196 214 192 153 171 232 113 85 54 249 324 22 40 51 57 59 48 39 41 42 30 18 33 49 57 58 42 32 28 12 23 65 71 61 64 73 79 81 81 77 45 16 126 141 163 176 177 181 176 174 181 180 180 186 187 184 185 182 174 169 168 163 159 158 159 158 155 151 150 151 153 153 152 153 155 155 154 152 151 148 145 145 145 147 149 150 152 148 142 144 142
194 228 257 264 242 169 182 255 216 156 159 185 152 167 254 250 61 66 74 71 71 76 65 43 39 44 39 30 31 19 17 45 46 31 19 356 352 12 48 59 61 66 66 60 67 78 70 45 59 78 187 192 183 186 183 177 180 178 171 171 181 185 185 179 171 167 162 155 155 155 154 155 154 151 151 151 149 149 150 153 154 151 146 146 148 146 144 147 148 148 150 155 161 157 150 149 149
182 187 208 218 215 159 170 273 272 143 116 154 147 188 264 285 75 85 86 81 80 79 68 52 46 48 45 39 38 24 25 46 47 31 23 6 346 352 29 56 55 58 61 55 55 77 95 97 112 143 185 189 185 189 188 182 178 171 161 162 173 178 178 172 164 160 155 148 150 152 152 156 155 153 155 153 148 148 150 151 152 150 147 146 145 142 144 149 151 153 156 163 170 163 151 149 150
Height
774 775 775 776 776 777 778 778 792 790 790 801 790 785 769 748 747 746 746 740 740 738 729 730 728 728 735 742 747 753 755 759 764 770 779 767 755 759 759 762 765 767 772 775 778 781 782 784 784 785 787 788 789 790 792 793 795 796 797 798 799 800 801 803 803 804 805 806 808 809 810 811 812 813 814 816 817 818 819 820 820 821 822 822 823 824 825 825 826 826 827 827 827 827 828 828 828
774 775 774 776 775 779 779 776 795 795 796 804 786 778 762 745 750 752 750 744 744 736 726 727 726 728 730 732 737 750 759 755 754 757 760 756 759 763 762 766 768 771 775 778 780 782 784 785 785 786 787 788 789 791 792 794 796 797 798 799 800 802 803 804 804 806 806 807 808 810 811 812 814 814 815 817 818 819 820 821 822 822 823 824 825 826 826 827 827 828 828 828 828 829 829 829 829
774 775 774 777 776 778 778 779 796 799 801 803 784 766 752 751 754 750 746 740 736 729 727 727 729 731 732 741 744 755 764 755 750 753 755 757 762 767 768 769 771 776 778 781 782 783 785 785 786 786 787 789 790 791 793 795 796 797 799 800 802 803 804 805 806 807 807 808 809 811 812 814 815 816 817 818 819 820 821 822 823 824 825 826 827 827 828 829 829 829 829 829 830 830 830 830 830
773 774 774 776 778 780 782 786 792 796 801 796 782 760 748 753 749 745 739 733 730 727 730 731 735 732 735 753 751 755 762 755 752 752 757 763 768 772 772 773 777 779 780 782 782 783 784 785 785 786 787 789 790 792 793 795 796 798 800 801 803 804 805 806 807 808 808 809 811 812 814 815 816 817 818 819 820 821 822 823 824 825 826 827 828 829 829 830 831 831 831 831 831 831 831 831 831
773 774 774 775 781 781 782 786 784 790 793 784 777 760 749 749 744 741 734 730 728 728 731 733 741 734 737 750 749 758 761 755 754 753 760 771 775 777 777 778 780 780 780 780 780 781 782 784 786 786 788 789 791 792 794 795 797 799 800 802 803 804 805 806 807 808 810 811 812 814 815 816 817 818 819 820 821 822 824 824 825 826 827 828 829 830 831 832 832 832 833 833 833 833 833 833 833
772 773 772 774 777 775 783 791 787 786 776 768 769 758 750 744 740 739 732 730 726 727 729 732 740 740 749 750 746 754 753 753 757 757 761 771 773 773 774 774 776 776 776 776 777 779 782 785 786 787 788 790 791 792 794 795 797 799 800 801 803 804 806 807 808 809 810 812 813 815 816 817 818 819 820 821 822 823 824 825 826 827 828 830 830 831 832 833 833 834 834 834 834 834 834 834 834
772 775 773 777 777 774 789 795 788 785 765 756 760 753 747 741 737 737 736 736 733 730 729 732 732 744 759 751 751 753 748 750 755 760 761 767 770 768 768 766 768 769 771 775 776 779 782 784 785 787 787 789 790 792 793 794 797 798 800 802 804 805 807 808 809 811 811 813 814 815 816 817 818 819 820 821 823 824 825 826 827 828 830 831 831 832 833 834 834 835 835 835 835 835 836 835 835
773 776 774 781 785 781 790 790 784 780 761 749 750 746 742 738 735 737 740 741 740 736 732 732 727 748 763 750 761 762 753 755 756 761 761 765 769 769 768 765 766 767 770 774 777 779 780 782 784 785 787 788 790 791 792 794 796 798 801 802 804 806 807 809 810 811 812 814 815 816 817 817 819 820 821 822 823 825 826 827 828 829 830 832 833 833 834 834 835 836 836 836 837 837 837 837 837
773 777 775 782 788 786 787 785 778 769 757 748 746 742 738 736 735 738 741 740 740 737 735 732 729 753 763 756 768 765 760 762 758 761 761 764 766 767 768 766 768 767 769 771 774 776 777 781 782 784 786 787 788 790 792 794 796 798 801 802 804 806 807 809 810 812 813 814 815 816 817 818 820 821 822 823 824 825 826 827 828 830 831 832 833 834 835 835 836 837 837 838 838 838 838 838 838
774 775 777 782 787 792 791 783 772 762 753 746 744 740 736 735 734 736 740 741 738 737 734 728 735 753 760 764 770 765 766 764 758 762 762 762 763 766 768 768 768 766 769 771 772 773 775 778 780 783 784 785 787 789 791 793 796 797 799 801 803 804 806 808 809 811 813 814 815 816 817 819 820 821 823 823 824 826 827 828 829 830 832 833 834 834 835 836 837 837 838 839 839 839 840 840 840
778 773 774 785 790 795 792 782 770 759 749 743 743 737 733 731 733 737 739 741 737 738 734 730 745 754 758 768 771 768 767 764 760 763 763 762 764 766 768 769 770 768 769 771 773 774 774 776 778 781 782 784 786 788 791 792 795 796 798 800 802 804 805 807 809 811 812 814 815 817 818 819 821 822 823 824 825 826 827 828 829 831 832 833 834 835 836 837 838 838 839 840 840 841 841 841 841
782 777 776 789 791 788 783 777 769 758 750 747 746 736 730 729 734 739 741 743 738 740 737 734 746 750 762 772 770 769 766 765 763 764 765 763 763 765 767 769 770 770 770 772 774 775 776 777 778 780 781 784 786 789 791 793 795 796 798 799 801 803 805 807 809 811 812 814 815 817 818 820 821 822 824 824 825 826 828 829 830 831 832 833 834 835 836 837 838 839 840 841 841 841 842 842 842
779 777 779 787 781 778 775 771 764 758 757 752 746 736 729 732 737 739 740 743 740 745 740 734 739 745 764 771 767 770 768 768 764 765 766 763 764 765 767 769 770 771 772 773 774 775 777 778 779 781 783 785 787 789 791 793 795 796 798 799 801 803 804 807 808 810 812 814 816 817 819 820 822 823 824 825 826 827 828 829 830 832 833 834 835 836 837 838 839 840 841 842 842 842 843 843 843
773 771 777 783 774 772 770 768 761 760 763 750 741 734 730 734 736 735 739 745 743 743 738 731 735 747 765 769 770 772 770 769 766 766 765 764 765 765 767 769 770 772 773 774 774 776 777 779 781 783 785 786 788 789 791 793 795 796 798 799 800 802 804 806 808 810 812 814 816 818 819 821 822 824 825 826 827 828 829 830 831 832 833 834 835 837 838 839 840 841 842 843 843 844 844 844 845
767 767 772 779 776 772 767 765 760 760 761 747 739 733 733 734 732 735 739 745 742 731 730 730 731 746 761 764 769 769 767 768 766 767 765 766 767 766 769 770 772 773 775 776 776 777 778 781 783 785 787 788 790 791 793 794 796 797 797 799 799 801 803 805 807 809 811 813 815 818 820 821 823 824 825 826 828 829 830 831 832 833 834 835 836 837 839 840 841 842 843 844 844 845 845 845 846
760 764 772 779 778 776 767 760 757 761 758 745 739 733 738 737 730 737 735 735 738 727 730 736 731 740 750 752 758 762 764 765 766 767 766 768 769 769 771 772 775 775 777 778 778 779 780 783 784 787 788 789 791 792 794 795 797 798 798 799 799 801 803 805 807 809 811 813 815 817 820 821 823 824 825 827 828 829 830 832 833 833 835 836 837 838 839 841 842 843 844 844 845 845 846 846 847
756 764 777 781 779 777 766 758 757 759 755 745 740 736 743 743 732 733 728 728 736 734 737 739 734 735 741 745 750 756 763 765 766 767 768 770 771 772 773 774 776 777 779 780 780 781 782 784 785 788 789 791 792 793 795 796 798 799 800 800 800 801 803 805 806 808 810 812 814 817 819 821 823 824 825 827 828 830 831 832 833 834 835 836 838 839 840 841 843 844 844 845 846 846 847 847 848
760 769 778 781 778 771 759 754 751 750 751 746 742 739 743 746 740 733 731 734 737 742 745 743 742 741 743 746 750 755 761 763 765 767 769 771 772 772 774 775 777 778 780 781 782 782 784 786 787 789 790 792 794 795 796 797 799 800 801 801 801 802 802 805 805 807 809 811 814 816 819 821 822 824 825 827 828 830 831 832 833 834 836 837 838 839 841 842 843 844 845 846 846 847 848 848 849
762 769 775 775 769 759 750 747 745 745 748 746 743 742 742 745 741 736 741 744 741 751 755 750 752 753 752 754 756 758 759 762 764 766 768 770 772 773 774 776 778 779 780 781 783 784 785 787 788 789 790 792 794 795 797 798 800 800 801 801 801 802 803 804 804 806 808 810 813 815 818 820 822 823 825 827 828 830 831 832 833 834 836 837 838 839 841 842 843 844 845 846 847 848 848 849 849
759 765 773 768 757 753 746 743 742 742 743 745 746 744 743 742 738 739 745 746 746 754 756 754 758 758 758 759 759 761 761 763 764 765 768 771 773 774 775 776 778 780 781 782 783 785 787 788 789 790 791 793 793 795 797 798 799 800 800 801 802 803 803 803 803 805 807 809 812 814 817 820 822 823 825 827 828 830 831 832 833 834 835 837 838 839 841 842 843 844 845 846 847 848 849 849 850
757 761 767 760 752 754 747 740 739 738 739 744 746 746 747 741 737 741 744 749 754 753 748 748 753 754 756 758 759 761 763 764 765 766 768 770 773 775 776 777 779 781 782 783 785 786 788 789 789 790 792 792 793 794 796 797 798 799 800 800 802 803 804 803 803 804 806 809 811 814 817 819 821 822 824 826 828 830 831 832 833 834 835 837 839 840 841 842 843 844 845 846 847 848 849 850 850
757 756 756 752 751 754 745 737 737 736 738 743 746 748 747 740 740 742 744 751 753 747 741 741 745 747 751 754 757 760 763 764 765 767 768 770 773 775 777 778 780 782 783 784 785 787 788 789 790 790 791 792 793 793 794 796 797 798 799 800 802 804 804 803 803 804 805 808 810 813 816 818 820 822 824 826 828 830 831 832 833 834 836 837 839 840 841 842 843 844 845 846 847 848 849 850 851
757 755 749 748 748 749 742 736 737 736 739 744 745 745 743 744 746 742 743 747 742 736 736 738 742 743 745 749 755 760 762 763 764 766 768 770 771 773 776 779 781 782 783 784 786 788 788 788 789 790 790 791 792 793 794 795 796 798 799 800 802 804 805 804 803 804 805 807 809 812 815 817 820 822 824 826 828 830 831 832 833 835 836 838 839 840 841 842 843 844 845 846 847 848 849 850 851
754 755 748 745 743 743 739 735 737 737 739 741 740 742 744 749 749 743 743 741 734 732 732 736 740 740 743 749 754 758 759 760 764 766 766 767 769 772 776 778 781 782 783 785 786 787 787 788 788 789 790 791 792 792 794 795 797 799 799 800 801 804 805 805 804 804 806 807 809 812 815 817 820 822 824 826 828 830 831 832 834 835 836 838 839 841 841 842 843 844 845 846 847 848 849 850 851
751 752 746 743 741 739 737 735 735 735 737 737 738 744 746 745 745 745 745 739 733 731 733 735 738 741 744 749 754 757 758 760 764 765 765 767 769 772 775 777 779 780 782 783 785 786 786 787 788 789 790 790 791 792 794 796 798 799 799 800 801 803 805 805 805 805 807 808 810 813 815 818 819 821 824 826 828 830 831 832 834 835 836 838 839 841 842 842 843 844 845 846 847 848 849 850 850
747 746 744 742 741 737 735 735 735 735 735 736 742 746 744 740 742 746 742 737 733 731 735 737 738 744 746 749 753 755 757 759 762 764 764 767 768 769 771 773 775 777 779 781 783 785 786 788 789 789 789 789 791 793 795 797 798 799 800 801 802 803 805 806 806 806 807 809 811 813 816 818 820 822 824 826 828 829 831 832 834 835 837 838 840 841 842 843 844 844 845 846 847 848 849 849 849
740 741 741 740 740 736 735 737 735 735 735 736 743 747 744 738 743 750 741 733 731 731 737 739 740 745 747 749 752 754 757 758 760 762 763 764 766 767 767 769 773 775 778 780 782 784 785 787 788 789 789 790 792 795 797 797 798 799 800 800 802 803 805 805 806 807 808 810 812 814 816 818 820 822 823 826 827 829 830 832 834 835 837 839 840 841 842 843 844 844 845 846 847 849 849 849 849
737 739 742 741 739 737 736 738 737 737 738 735 739 744 743 740 745 748 738 731 731 731 737 741 742 745 746 748 751 753 756 757 759 760 761 762 764 766 767 767 771 774 777 779 780 782 785 786 787 789 790 792 794 796 797 797 798 799 800 800 802 803 804 805 806 807 808 810 812 814 816 818 820 822 824 825 827 829 830 832 834 835 837 839 840 841 842 842 843 844 845 846 847 849 850 849 850
738 739 747 746 741 742 739 737 737 738 740 733 736 749 750 747 745 739 732 730 730 731 737 742 743 745 747 748 750 752 754 756 758 759 761 762 763 766 769 770 771 775 777 779 779 781 784 786 787 787 790 792 795 796 796 797 799 799 800 801 802 803 804 805 806 807 809 811 813 814 816 818 820 822 824 825 827 829 830 832 834 835 837 838 840 841 842 842 843 844 845 846 847 849 850 850 850
740 741 748 750 752 750 739 736 737 738 739 730 739 762 760 747 740 732 729 729 730 733 738 742 744 745 747 748 749 751 753 755 756 758 761 763 766 769 771 771 772 775 777 779 780 781 783 785 786 787 789 792 793 794 796 797 799 800 801 801 803 804 805 806 806 808 809 811 813 814 816 818 820 821 823 825 826 828 829 831 833 835 836 838 840 841 842 842 843 843 844 845 847 848 849 849 850
744 746 749 753 763 756 737 734 738 739 736 726 741 766 759 744 738 730 727 727 728 734 739 742 743 745 747 748 748 750 752 754 754 757 760 763 767 771 775 776 776 777 779 781 781 782 783 785 787 788 790 792 792 794 795 797 799 800 802 802 803 804 805 807 807 808 809 811 812 814 815 817 819 820 822 824 825 827 828 830 832 834 835 837 840 841 842 842 843 844 844 845 847 848 848 850 851
746 756 761 758 763 755 737 733 734 738 734 726 742 762 755 741 736 729 725 726 727 734 740 741 742 745 746 747 748 750 751 752 754 756 759 763 765 768 773 776 776 779 782 785 786 785 785 786 787 788 790 792 793 794 796 797 799 800 802 803 804 804 806 807 808 808 809 810 812 813 815 816 817 819 821 823 825 826 828 830 832 834 835 837 840 841 842 842 843 843 844 845 846 848 849 850 851
751 758 767 762 760 757 745 733 725 728 732 730 740 754 753 740 731 726 721 719 725 735 740 741 742 744 746 747 748 749 750 751 753 756 758 760 762 764 769 770 771 774 778 783 789 791 789 788 788 787 790 793 794 796 797 797 800 801 802 804 805 806 807 807 807 808 808 810 811 812 814 815 817 818 819 822 824 826 828 830 832 835 836 837 839 841 841 842 842 842 843 844 845 848 850 851 852
761 759 762 759 755 756 751 736 722 722 732 736 738 744 748 737 728 727 718 713 724 736 740 740 742 744 745 747 749 749 750 750 751 753 754 756 760 764 767 769 771 774 777 780 784 791 794 793 791 790 793 795 797 799 799 800 802 804 805 806 807 808 808 807 808 808 808 809 810 812 814 815 816 817 819 821 823 826 827 830 832 834 836 836 838 840 840 841 841 841 842 843 846 849 849 850 851
766 763 762 759 753 752 751 741 728 725 733 740 742 745 745 737 729 728 722 716 724 733 737 739 741 744 746 747 749 750 749 750 749 749 750 753 757 762 766 770 773 776 780 781 781 786 793 796 794 794 797 799 802 803 802 803 804 806 809 809 810 810 810 809 808 808 808 809 810 812 814 815 816 817 818 820 821 824 826 829 831 833 835 836 837 839 839 840 840 841 841 843 846 848 848 850 851
757 756 756 759 755 750 743 735 727 726 735 740 742 746 744 739 733 730 726 721 723 729 735 739 741 744 746 747 749 749 750 751 749 749 750 752 755 760 765 771 775 778 781 783 782 783 788 793 796 797 799 801 802 802 802 802 803 808 811 811 811 809 809 808 807 806 806 808 810 812 814 815 816 817 818 820 821 824 827 829 831 833 834 835 836 837 838 839 839 840 841 843 845 847 849 850 851
749 750 753 753 754 750 737 729 723 721 735 741 737 741 742 738 734 729 728 727 726 730 736 739 741 743 745 747 748 749 751 751 750 751 752 753 755 759 765 772 776 778 782 783 782 783 785 789 792 794 795 795 794 795 797 798 799 803 806 806 807 806 806 807 806 805 806 808 810 811 813 814 816 817 819 820 822 825 827 829 831 832 833 835 836 837 838 839 839 840 841 843 844 846 849 850 851
749 753 755 754 754 749 736 729 725 719 732 741 737 739 741 736 734 728 726 730 731 732 737 741 741 743 743 745 746 747 750 751 751 752 753 755 757 761 766 771 773 776 781 782 783 787 786 785 786 786 788 790 791 794 795 795 796 798 798 798 799 801 803 806 806 806 807 808 810 810 812 814 816 818 819 821 823 825 827 829 831 832 833 834 835 836 837 838 839 841 841 843 843 845 848 849 850
750 753 757 760 754 747 739 730 725 723 732 741 738 739 740 734 733 732 729 730 729 727 732 736 738 742 743 743 744 745 747 749 750 750 753 757 760 762 765 769 771 774 778 777 777 785 787 785 784 783 785 790 794 795 795 794 794 796 797 796 796 798 801 804 806 806 807 808 809 810 812 814 816 818 820 821 823 825 827 829 830 831 832 833 834 835 836 838 839 840 842 842 843 845 847 849 850
751 753 758 761 751 750 751 739 728 727 731 738 738 741 742 737 735 734 730 729 726 723 726 730 732 736 738 737 738 741 743 745 746 747 751 757 760 762 763 766 769 771 775 771 765 772 782 784 783 781 784 788 790 791 791 792 794 796 797 797 797 798 800 803 804 806 807 808 809 811 812 814 816 817 819 821 823 825 827 828 829 830 832 833 833 834 835 837 839 840 841 842 842 844 846 849 850
752 751 755 757 748 747 750 742 733 731 731 732 738 748 748 739 739 737 730 729 727 723 723 727 729 729 730 732 734 736 736 737 742 745 749 755 758 759 761 764 766 767 773 773 764 763 771 777 778 779 782 783 785 786 788 791 794 796 797 797 798 799 801 802 803 804 806 807 808 810 812 813 815 817 819 821 822 824 826 827 829 830 831 832 833 833 834 836 838 839 841 842 841 842 844 847 849
753 747 746 748 746 745 745 743 743 749 749 736 736 761 761 741 738 740 734 732 731 727 723 724 726 726 727 732 734 735 734 734 737 740 746 754 757 759 761 763 764 765 770 773 768 762 764 769 774 778 779 780 783 784 785 788 791 793 794 795 796 798 800 800 800 802 804 806 807 809 811 813 814 816 818 820 822 824 825 826 828 829 830 831 832 833 833 835 836 837 840 841 841 842 843 845 847
756 746 740 741 743 745 746 747 752 762 761 740 735 761 770 751 742 740 736 735 732 728 726 722 721 722 724 729 732 734 735 736 737 741 750 758 760 760 762 762 761 763 768 770 769 766 765 767 771 774 777 780 785 787 786 785 787 789 790 791 792 793 795 796 798 800 802 804 806 808 810 813 814 816 817 819 821 823 824 826 827 828 829 830 831 832 833 835 835 837 839 841 842 842 843 845 846
754 742 738 742 744 746 747 748 754 757 753 745 740 751 765 763 748 737 735 739 735 731 730 727 724 724 725 726 729 730 732 734 738 745 755 760 762 763 763 763 762 763 766 767 768 768 768 768 769 771 776 780 786 790 789 786 784 784 786 789 791 791 792 795 798 801 802 804 805 807 809 812 813 815 817 818 820 821 822 824 826 827 829 830 830 831 832 834 834 836 838 841 842 842 842 843 844
745 735 736 741 741 744 744 746 752 750 752 761 752 748 766 769 747 734 733 737 740 738 737 735 729 729 732 732 732 732 733 736 740 747 753 756 758 761 760 760 761 762 763 765 766 769 770 771 772 775 778 782 786 790 792 791 790 788 787 787 789 791 793 795 799 801 803 804 805 807 809 811 812 814 816 817 818 819 821 821 822 825 828 829 830 831 832 833 834 836 838 840 842 841 841 842 843
733 731 735 737 738 740 741 747 753 752 761 772 760 751 769 772 750 741 742 741 743 742 740 738 733 733 737 738 738 738 739 740 742 745 748 751 753 755 757 757 758 758 759 761 763 766 771 775 779 781 783 785 787 790 793 794 795 795 792 789 789 791 793 795 799 802 803 804 806 807 809 810 811 813 815 816 817 818 819 820 820 823 827 829 830 831 832 833 835 837 838 839 840 840 841 841 842
727 732 738 740 741 740 743 745 748 761 774 773 760 751 762 773 761 752 752 749 745 741 740 741 737 737 739 741 744 745 746 746 748 750 751 752 753 754 756 756 755 755 754 756 759 764 770 776 782 784 785 786 788 790 793 794 796 796 795 793 792 793 794 795 798 801 803 805 806 807 809 811 812 813 814 815 817 817 819 820 820 824 828 830 830 830 832 833 835 836 837 838 839 840 840 841 842
727 734 741 750 752 748 754 754 752 773 784 769 756 749 756 773 771 759 754 748 743 742 742 744 744 744 744 746 750 752 753 754 755 759 760 760 760 759 759 756 754 755 758 760 762 766 771 776 781 784 785 787 788 790 792 794 795 795 795 794 794 794 796 796 797 800 802 805 807 808 810 811 812 814 814 815 817 817 819 820 820 824 829 830 829 830 831 833 834 835 836 837 838 839 840 841 842
730 737 744 760 768 767 774 773 768 779 778 760 750 749 759 772 770 760 754 748 745 744 744 746 749 751 751 753 757 757 757 758 761 765 768 770 770 770 769 765 762 763 766 767 768 770 772 774 779 783 785 787 788 789 790 792 793 794 795 794 794 795 796 797 798 800 803 805 807 808 810 811 812 813 815 816 817 817 818 819 819 823 828 829 829 829 831 832 833 834 835 836 837 839 840 840 841
735 740 747 763 775 783 789 782 777 779 772 756 746 751 768 776 767 758 753 749 747 746 746 747 749 753 756 757 758 759 758 760 763 766 769 771 771 774 776 776 773 772 772 770 769 771 772 770 773 779 783 785 787 788 788 790 792 794 796 796 796 796 796 798 800 802 804 806 807 809 810 811 812 813 815 816 817 817 818 819 820 823 826 827 828 829 831 831 832 833 834 835 837 838 839 840 841
735 732 738 755 763 775 785 779 776 777 768 757 749 758 776 778 766 756 751 747 746 748 749 749 751 754 757 758 759 760 761 762 764 766 768 770 769 771 774 776 776 776 776 773 768 767 767 766 769 774 780 784 787 788 789 789 790 793 797 799 800 800 798 798 801 803 804 806 808 809 811 812 813 814 815 816 817 818 819 819 821 824 825 826 828 829 830 831 832 832 834 835 836 837 839 840 841
734 725 736 751 748 753 767 766 764 767 769 765 762 769 773 767 759 752 749 749 749 752 755 757 760 761 760 763 765 765 766 766 767 769 771 771 771 771 771 773 774 774 775 774 769 766 765 765 768 773 779 784 787 788 789 789 790 792 796 800 802 803 800 799 800 802 804 806 808 809 811 812 813 814 814 816 817 818 819 820 821 823 825 826 828 829 830 831 831 832 833 834 835 837 838 840 841
734 732 741 740 729 737 757 763 757 761 774 771 764 773 774 767 764 756 752 756 756 759 764 766 768 766 765 768 769 769 770 769 770 771 771 770 769 770 771 770 769 768 772 774 773 772 770 768 768 771 776 782 785 787 788 789 791 792 793 795 798 801 801 799 799 801 803 805 807 809 811 812 813 814 814 815 817 818 819 820 822 823 825 826 827 828 830 831 831 832 833 834 835 836 838 839 840
735 743 737 726 726 734 747 763 764 767 780 771 757 770 779 777 774 764 758 762 765 768 771 772 773 772 772 773 772 773 773 771 771 770 771 770 767 767 769 770 768 767 771 774 774 775 773 770 770 771 775 779 782 784 785 787 790 791 790 790 791 795 797 798 799 801 803 805 807 808 810 811 812 813 814 816 817 819 820 821 823 824 825 826 827 828 830 831 832 832 833 834 835 836 838 839 840
725 732 723 725 745 750 748 760 769 773 781 773 763 770 779 780 778 772 768 770 773 777 777 777 779 778 777 776 775 775 774 772 771 770 772 772 769 767 767 769 770 769 770 772 773 774 774 772 772 773 776 778 780 782 783 785 787 789 789 789 791 792 794 796 798 801 803 804 806 807 809 810 812 813 814 816 818 819 821 822 823 824 825 825 826 828 830 831 832 833 834 835 836 837 838 839 840
717 722 721 725 738 746 748 751 755 764 775 774 772 777 781 781 778 777 780 781 780 782 782 783 784 781 780 778 777 776 774 772 771 772 773 772 771 770 768 767 768 769 770 770 770 771 774 776 776 776 778 779 780 781 782 783 783 784 785 788 792 793 794 796 799 801 803 804 806 807 808 810 811 813 814 816 817 819 821 822 824 824 825 825 827 828 830 831 832 834 834 835 836 837 838 839 840
726 731 734 733 730 733 742 744 741 749 764 769 773 781 784 779 774 778 784 785 783 783 784 787 785 782 781 780 780 780 776 772 772 775 774 771 770 770 768 766 767 768 769 769 769 769 775 780 780 780 781 781 780 781 781 781 780 780 782 786 790 793 794 797 799 802 804 805 806 807 808 810 811 812 814 815 817 819 820 822 823 824 825 826 827 829 830 832 833 834 834 835 836 837 838 839 840
726 732 733 735 735 737 749 755 743 741 755 764 770 780 784 777 774 779 784 784 784 783 783 786 786 785 785 785 785 784 780 775 776 778 777 774 772 770 768 768 769 770 769 769 770 771 775 780 781 783 784 783 781 781 782 782 782 781 781 785 789 792 794 797 799 802 804 805 806 807 809 810 810 812 813 815 817 818 820 822 823 824 826 827 828 829 831 832 833 834 834 835 836 837 838 839 840